Time,TemperatureF,DewpointF,PressureIn,WindDirection,WindDirectionDegrees,WindSpeedMPH,WindSpeedGustMPH,Humidity,HourlyPrecipIn,Conditions,Clouds,dailyrainin,SoftwareType,DateUTC
2013-10-31 00:01:00,62.9,61.4,29.91,SSW,197,3.0,4.0,95,0.13,,,0.00,Wunderground v.1.15,2013-10-31 04:01:00,
2013-10-31 00:02:00,62.9,61.4,29.91,SSW,210,3.0,4.0,95,0.11,,,0.00,Wunderground v.1.15,2013-10-31 04:02:00,
2013-10-31 00:03:00,62.9,61.4,29.91,SSW,199,3.0,4.0,95,0.10,,,0.00,Wunderground v.1.15,2013-10-31 04:03:00,
2013-10-31 00:08:00,62.9,61.4,29.91,SSW,211,3.0,5.0,95,0.05,,,0.00,Wunderground v.1.15,2013-10-31 04:08:00,
2013-10-31 00:13:00,62.9,61.4,29.90,SW,220,3.0,3.0,95,0.04,,,0.00,Wunderground v.1.15,2013-10-31 04:13:00,
2013-10-31 00:17:00,62.8,61.3,29.90,SSW,210,3.0,6.0,95,0.00,,,0.01,Wunderground v.1.15,2013-10-31 04:17:00,
2013-10-31 00:22:00,62.8,61.3,29.89,SSW,211,3.0,5.0,95,0.00,,,0.01,Wunderground v.1.15,2013-10-31 04:22:00,
2013-10-31 00:27:00,62.8,61.3,29.89,SW,216,2.0,7.0,95,0.00,,,0.01,Wunderground v.1.15,2013-10-31 04:27:00,
2013-10-31 00:33:00,62.7,61.2,29.89,SW,214,3.0,6.0,95,0.00,,,0.01,Wunderground v.1.15,2013-10-31 04:33:00,
2013-10-31 00:38:00,62.7,61.2,29.88,SSW,208,2.0,7.0,95,0.00,,,0.01,Wunderground v.1.15,2013-10-31 04:38:00,
2013-10-31 00:44:00,62.7,61.2,29.88,South,190,2.0,4.0,95,0.00,,,0.01,Wunderground v.1.15,2013-10-31 04:44:00,
2013-10-31 00:49:00,62.6,61.1,29.87,SSW,205,2.0,5.0,95,0.00,,,0.02,Wunderground v.1.15,2013-10-31 04:49:00,
2013-10-31 00:54:00,62.6,61.1,29.87,SW,230,3.0,6.0,95,0.00,,,0.02,Wunderground v.1.15,2013-10-31 04:54:00,
2013-10-31 01:00:00,62.6,61.1,29.87,SW,215,4.0,4.0,95,0.04,,,0.03,Wunderground v.1.15,2013-10-31 05:00:00,
2013-10-31 01:05:00,62.6,61.1,29.87,SSW,213,4.0,7.0,95,0.04,,,0.03,Wunderground v.1.15,2013-10-31 05:05:00,
2013-10-31 01:10:00,62.7,61.2,29.88,SW,220,5.0,5.0,95,0.09,,,0.04,Wunderground v.1.15,2013-10-31 05:10:00,
2013-10-31 01:15:00,62.8,61.3,29.87,SW,223,6.0,18.0,95,0.19,,,0.06,Wunderground v.1.15,2013-10-31 05:15:00,
2013-10-31 01:20:00,62.9,61.4,29.86,SW,233,6.0,7.0,95,0.33,,,0.11,Wunderground v.1.15,2013-10-31 05:20:00,
2013-10-31 01:25:00,62.9,61.4,29.86,SW,226,5.0,10.0,95,0.14,,,0.13,Wunderground v.1.15,2013-10-31 05:25:00,
2013-10-31 01:31:00,62.9,61.4,29.86,SW,225,5.0,9.0,95,0.15,,,0.14,Wunderground v.1.15,2013-10-31 05:31:00,
2013-10-31 01:36:00,62.9,61.4,29.86,SSW,213,5.0,13.0,95,0.11,,,0.15,Wunderground v.1.15,2013-10-31 05:36:00,
2013-10-31 01:41:00,63.0,61.5,29.86,SW,234,6.0,8.0,95,0.15,,,0.16,Wunderground v.1.15,2013-10-31 05:41:00,
2013-10-31 01:46:00,62.9,61.1,29.86,SW,229,5.0,8.0,94,0.07,,,0.16,Wunderground v.1.15,2013-10-31 05:46:00,
2013-10-31 01:51:00,62.9,61.1,29.86,SSW,213,5.0,5.0,94,0.06,,,0.17,Wunderground v.1.15,2013-10-31 05:51:00,
2013-10-31 01:57:00,62.9,61.1,29.86,SW,230,4.0,6.0,94,0.06,,,0.17,Wunderground v.1.15,2013-10-31 05:57:00,
2013-10-31 02:02:00,62.8,61.0,29.86,SW,227,4.0,8.0,94,0.04,,,0.17,Wunderground v.1.15,2013-10-31 06:02:00,
2013-10-31 02:07:00,62.8,61.0,29.86,SSW,202,4.0,8.0,94,0.00,,,0.17,Wunderground v.1.15,2013-10-31 06:07:00,
2013-10-31 02:12:00,62.8,61.0,29.85,WSW,241,4.0,5.0,94,0.00,,,0.18,Wunderground v.1.15,2013-10-31 06:12:00,
2013-10-31 02:17:00,62.8,61.0,29.85,SW,231,4.0,7.0,94,0.00,,,0.18,Wunderground v.1.15,2013-10-31 06:17:00,
2013-10-31 02:22:00,62.8,61.0,29.85,SW,228,5.0,11.0,94,0.00,,,0.18,Wunderground v.1.15,2013-10-31 06:22:00,
2013-10-31 02:27:00,62.9,61.1,29.85,SW,228,4.0,11.0,94,0.00,,,0.18,Wunderground v.1.15,2013-10-31 06:27:00,
2013-10-31 02:33:00,62.9,61.1,29.85,SW,235,4.0,7.0,94,0.00,,,0.19,Wunderground v.1.15,2013-10-31 06:33:00,
2013-10-31 02:39:00,62.9,61.1,29.85,SSW,209,3.0,7.0,94,0.00,,,0.19,Wunderground v.1.15,2013-10-31 06:39:00,
2013-10-31 02:44:00,62.8,61.0,29.84,SSW,210,3.0,6.0,94,0.00,,,0.19,Wunderground v.1.15,2013-10-31 06:44:00,
2013-10-31 02:49:00,62.8,61.0,29.84,SSW,205,3.0,7.0,94,0.00,,,0.19,Wunderground v.1.15,2013-10-31 06:49:00,
2013-10-31 02:54:00,62.8,61.0,29.85,SW,217,4.0,7.0,94,0.00,,,0.19,Wunderground v.1.15,2013-10-31 06:54:00,
2013-10-31 03:00:00,62.8,61.0,29.84,SSW,209,4.0,4.0,94,0.00,,,0.19,Wunderground v.1.15,2013-10-31 07:00:00,
2013-10-31 03:06:00,62.7,60.9,29.84,SW,227,3.0,6.0,94,0.00,,,0.19,Wunderground v.1.15,2013-10-31 07:06:00,
2013-10-31 03:11:00,62.7,60.9,29.84,SW,217,3.0,3.0,94,0.00,,,0.20,Wunderground v.1.15,2013-10-31 07:11:00,
2013-10-31 03:16:00,62.7,60.9,29.84,SW,236,3.0,6.0,94,0.00,,,0.20,Wunderground v.1.15,2013-10-31 07:16:00,
2013-10-31 03:22:00,62.7,60.9,29.84,SW,221,3.0,3.0,94,0.00,,,0.20,Wunderground v.1.15,2013-10-31 07:22:00,
2013-10-31 03:27:00,62.7,60.9,29.84,SW,229,3.0,7.0,94,0.00,,,0.20,Wunderground v.1.15,2013-10-31 07:27:00,
2013-10-31 03:32:00,62.7,60.9,29.84,SW,220,4.0,4.0,94,0.00,,,0.20,Wunderground v.1.15,2013-10-31 07:32:00,
2013-10-31 03:39:00,62.6,60.8,29.83,SW,229,3.0,5.0,94,0.00,,,0.21,Wunderground v.1.15,2013-10-31 07:39:00,
2013-10-31 03:44:00,62.6,60.8,29.82,SW,227,3.0,11.0,94,0.00,,,0.21,Wunderground v.1.15,2013-10-31 07:44:00,
2013-10-31 03:49:00,62.5,60.7,29.82,SW,232,4.0,11.0,94,0.00,,,0.21,Wunderground v.1.15,2013-10-31 07:49:00,
2013-10-31 03:55:00,62.5,60.7,29.82,SW,232,3.0,6.0,94,0.04,,,0.22,Wunderground v.1.15,2013-10-31 07:55:00,
2013-10-31 04:00:00,62.5,60.7,29.81,SW,231,3.0,3.0,94,0.04,,,0.22,Wunderground v.1.15,2013-10-31 08:00:00,
2013-10-31 04:06:00,62.4,60.7,29.81,SSW,212,3.0,5.0,94,0.04,,,0.22,Wunderground v.1.15,2013-10-31 08:06:00,
2013-10-31 04:12:00,62.3,60.6,29.81,SSW,211,3.0,4.0,94,0.00,,,0.22,Wunderground v.1.15,2013-10-31 08:12:00,
2013-10-31 04:17:00,62.3,60.6,29.80,SSW,204,3.0,9.0,94,0.00,,,0.22,Wunderground v.1.15,2013-10-31 08:17:00,
2013-10-31 04:23:00,62.3,60.6,29.80,SW,234,3.0,4.0,94,0.00,,,0.22,Wunderground v.1.15,2013-10-31 08:23:00,
2013-10-31 04:28:00,62.2,60.5,29.80,SW,232,3.0,7.0,94,0.00,,,0.22,Wunderground v.1.15,2013-10-31 08:28:00,
2013-10-31 04:34:00,62.1,60.4,29.80,SW,228,2.0,6.0,94,0.00,,,0.22,Wunderground v.1.15,2013-10-31 08:34:00,
2013-10-31 04:39:00,62.1,60.4,29.79,SW,222,2.0,6.0,94,0.00,,,0.22,Wunderground v.1.15,2013-10-31 08:39:00,
2013-10-31 04:44:00,62.0,60.3,29.79,SW,223,3.0,5.0,94,0.00,,,0.22,Wunderground v.1.15,2013-10-31 08:44:00,
2013-10-31 04:50:00,62.0,60.3,29.79,SW,221,2.0,8.0,94,0.00,,,0.22,Wunderground v.1.15,2013-10-31 08:50:00,
2013-10-31 04:55:00,62.0,60.3,29.78,South,190,2.0,10.0,94,0.00,,,0.23,Wunderground v.1.15,2013-10-31 08:55:00,
2013-10-31 05:00:00,61.9,60.2,29.78,SSW,198,2.0,4.0,94,0.00,,,0.23,Wunderground v.1.15,2013-10-31 09:00:00,
2013-10-31 05:06:00,61.8,60.1,29.78,SSW,198,1.0,4.0,94,0.00,,,0.23,Wunderground v.1.15,2013-10-31 09:06:00,
2013-10-31 05:11:00,61.8,60.1,29.78,SSW,199,1.0,2.0,94,0.00,,,0.23,Wunderground v.1.15,2013-10-31 09:11:00,
2013-10-31 05:16:00,61.7,60.0,29.77,SSW,202,2.0,4.0,94,0.00,,,0.23,Wunderground v.1.15,2013-10-31 09:16:00,
2013-10-31 05:22:00,61.7,60.0,29.77,SSW,202,2.0,2.0,94,0.00,,,0.24,Wunderground v.1.15,2013-10-31 09:22:00,
2013-10-31 05:28:00,61.6,59.9,29.77,SSW,194,2.0,4.0,94,0.00,,,0.24,Wunderground v.1.15,2013-10-31 09:28:00,
2013-10-31 05:33:00,61.5,59.8,29.77,South,187,3.0,6.0,94,0.00,,,0.24,Wunderground v.1.15,2013-10-31 09:33:00,
2013-10-31 05:39:00,61.4,59.7,29.77,South,191,2.0,6.0,94,0.00,,,0.24,Wunderground v.1.15,2013-10-31 09:39:00,
2013-10-31 05:44:00,61.4,59.7,29.76,SSW,198,2.0,6.0,94,0.00,,,0.25,Wunderground v.1.15,2013-10-31 09:44:00,
2013-10-31 05:49:00,61.3,59.6,29.76,SW,214,3.0,6.0,94,0.00,,,0.25,Wunderground v.1.15,2013-10-31 09:49:00,
2013-10-31 05:54:00,61.3,59.6,29.76,SW,217,2.0,4.0,94,0.06,,,0.26,Wunderground v.1.15,2013-10-31 09:54:00,
2013-10-31 05:59:00,61.3,59.6,29.76,SW,234,2.0,5.0,94,0.06,,,0.26,Wunderground v.1.15,2013-10-31 09:59:00,
2013-10-31 06:06:00,61.2,59.5,29.76,SW,233,3.0,3.0,94,0.04,,,0.26,Wunderground v.1.15,2013-10-31 10:06:00,
2013-10-31 06:11:00,61.2,59.5,29.76,WSW,238,3.0,3.0,94,0.00,,,0.26,Wunderground v.1.15,2013-10-31 10:11:00,
2013-10-31 06:16:00,61.2,59.5,29.76,SW,215,3.0,7.0,94,0.00,,,0.26,Wunderground v.1.15,2013-10-31 10:16:00,
2013-10-31 06:22:00,61.2,59.5,29.76,SW,224,3.0,5.0,94,0.00,,,0.27,Wunderground v.1.15,2013-10-31 10:22:00,
2013-10-31 06:27:00,61.2,59.5,29.75,SW,214,4.0,8.0,94,0.00,,,0.27,Wunderground v.1.15,2013-10-31 10:27:00,
2013-10-31 06:33:00,61.2,59.5,29.75,SW,219,4.0,7.0,94,0.00,,,0.27,Wunderground v.1.15,2013-10-31 10:33:00,
2013-10-31 06:38:00,61.1,59.4,29.75,WSW,240,4.0,7.0,94,0.00,,,0.27,Wunderground v.1.15,2013-10-31 10:38:00,
2013-10-31 06:43:00,61.1,59.4,29.74,SW,234,4.0,4.0,94,0.00,,,0.27,Wunderground v.1.15,2013-10-31 10:43:00,
2013-10-31 06:48:00,61.1,59.4,29.74,SSW,211,4.0,5.0,94,0.00,,,0.27,Wunderground v.1.15,2013-10-31 10:48:00,
2013-10-31 06:54:00,61.2,59.2,29.74,SSW,200,4.0,8.0,93,0.00,,,0.27,Wunderground v.1.15,2013-10-31 10:54:00,
2013-10-31 06:59:00,61.1,59.1,29.73,SW,228,3.0,8.0,93,0.00,,,0.27,Wunderground v.1.15,2013-10-31 10:59:00,
2013-10-31 07:04:00,61.1,59.1,29.73,SSW,204,3.0,5.0,93,0.00,,,0.27,Wunderground v.1.15,2013-10-31 11:04:00,
2013-10-31 07:09:00,61.1,59.1,29.73,SW,225,3.0,6.0,93,0.00,,,0.27,Wunderground v.1.15,2013-10-31 11:09:00,
2013-10-31 07:14:00,61.1,59.1,29.73,SW,229,3.0,6.0,93,0.00,,,0.28,Wunderground v.1.15,2013-10-31 11:14:00,
2013-10-31 07:19:00,61.1,59.1,29.73,SW,230,3.0,9.0,93,0.00,,,0.28,Wunderground v.1.15,2013-10-31 11:19:00,
2013-10-31 07:24:00,61.1,59.1,29.73,SSW,211,4.0,8.0,93,0.00,,,0.28,Wunderground v.1.15,2013-10-31 11:24:00,
2013-10-31 07:30:00,61.0,59.0,29.73,SW,221,3.0,4.0,93,0.00,,,0.28,Wunderground v.1.15,2013-10-31 11:30:00,
2013-10-31 07:35:00,60.9,58.9,29.72,SW,222,3.0,5.0,93,0.00,,,0.28,Wunderground v.1.15,2013-10-31 11:35:00,
2013-10-31 07:40:00,60.9,58.9,29.72,SW,222,4.0,4.0,93,0.00,,,0.28,Wunderground v.1.15,2013-10-31 11:40:00,
2013-10-31 07:45:00,60.8,58.8,29.72,SSW,206,4.0,5.0,93,0.00,,,0.28,Wunderground v.1.15,2013-10-31 11:45:00,
2013-10-31 07:51:00,60.7,58.7,29.72,WSW,247,4.0,7.0,93,0.00,,,0.29,Wunderground v.1.15,2013-10-31 11:51:00,
2013-10-31 07:56:00,60.5,58.2,29.72,WSW,257,6.0,16.0,92,0.00,,,0.29,Wunderground v.1.15,2013-10-31 11:56:00,
2013-10-31 08:01:00,60.3,58.0,29.72,WSW,237,7.0,16.0,92,0.00,,,0.29,Wunderground v.1.15,2013-10-31 12:01:00,
2013-10-31 08:06:00,60.2,57.6,29.71,SW,227,7.0,16.0,91,0.00,,,0.29,Wunderground v.1.15,2013-10-31 12:06:00,
2013-10-31 08:11:00,60.2,57.6,29.71,SW,232,6.0,6.0,91,0.00,,,0.29,Wunderground v.1.15,2013-10-31 12:11:00,
2013-10-31 08:16:00,60.1,57.5,29.71,South,186,5.0,6.0,91,0.00,,,0.29,Wunderground v.1.15,2013-10-31 12:16:00,
2013-10-31 08:22:00,60.1,57.5,29.71,SW,219,4.0,6.0,91,0.00,,,0.30,Wunderground v.1.15,2013-10-31 12:22:00,
2013-10-31 08:27:00,60.0,57.4,29.71,SW,227,4.0,6.0,91,0.00,,,0.30,Wunderground v.1.15,2013-10-31 12:27:00,
2013-10-31 08:32:00,59.9,57.3,29.70,SW,215,3.0,3.0,91,0.07,,,0.31,Wunderground v.1.15,2013-10-31 12:32:00,
2013-10-31 08:37:00,59.7,57.1,29.70,SW,235,2.0,9.0,91,0.25,,,0.33,Wunderground v.1.15,2013-10-31 12:37:00,
2013-10-31 08:42:00,59.5,56.9,29.70,SW,236,3.0,7.0,91,0.18,,,0.35,Wunderground v.1.15,2013-10-31 12:42:00,
2013-10-31 08:47:00,59.2,56.9,29.70,SW,214,3.0,7.0,92,0.15,,,0.36,Wunderground v.1.15,2013-10-31 12:47:00,
2013-10-31 08:52:00,59.0,56.7,29.69,SW,218,3.0,5.0,92,0.08,,,0.36,Wunderground v.1.15,2013-10-31 12:52:00,
2013-10-31 08:58:00,59.0,56.7,29.69,SW,216,3.0,6.0,92,0.07,,,0.37,Wunderground v.1.15,2013-10-31 12:58:00,
2013-10-31 09:03:00,59.0,56.7,29.69,SW,215,4.0,4.0,92,0.10,,,0.38,Wunderground v.1.15,2013-10-31 13:03:00,
2013-10-31 09:08:00,59.0,56.7,29.69,SSW,196,3.0,6.0,92,0.14,,,0.40,Wunderground v.1.15,2013-10-31 13:08:00,
2013-10-31 09:13:00,59.0,56.7,29.69,SW,219,3.0,7.0,92,0.14,,,0.41,Wunderground v.1.15,2013-10-31 13:13:00,
2013-10-31 09:18:00,58.9,56.9,29.69,SSW,209,3.0,7.0,93,0.19,,,0.42,Wunderground v.1.15,2013-10-31 13:18:00,
2013-10-31 09:23:00,58.8,56.8,29.69,SSE,164,3.0,7.0,93,0.11,,,0.43,Wunderground v.1.15,2013-10-31 13:23:00,
2013-10-31 09:29:00,58.8,56.8,29.69,SSW,205,3.0,7.0,93,0.08,,,0.44,Wunderground v.1.15,2013-10-31 13:29:00,
2013-10-31 09:34:00,58.9,56.9,29.68,SW,236,3.0,12.0,93,0.08,,,0.44,Wunderground v.1.15,2013-10-31 13:34:00,
2013-10-31 09:39:00,59.0,57.0,29.68,SW,221,4.0,12.0,93,0.06,,,0.45,Wunderground v.1.15,2013-10-31 13:39:00,
2013-10-31 09:44:00,59.0,57.0,29.67,SW,223,3.0,4.0,93,0.14,,,0.46,Wunderground v.1.15,2013-10-31 13:44:00,
2013-10-31 09:49:00,59.0,57.3,29.67,WSW,238,4.0,10.0,94,0.25,,,0.48,Wunderground v.1.15,2013-10-31 13:49:00,
2013-10-31 09:54:00,59.0,57.3,29.67,SSW,212,5.0,10.0,94,0.13,,,0.49,Wunderground v.1.15,2013-10-31 13:54:00,
2013-10-31 10:01:00,59.0,57.3,29.67,SSW,212,5.0,8.0,94,0.08,,,0.50,Wunderground v.1.15,2013-10-31 14:01:00,
2013-10-31 10:06:00,59.1,57.4,29.67,SW,223,5.0,11.0,94,0.08,,,0.50,Wunderground v.1.15,2013-10-31 14:06:00,
2013-10-31 10:11:00,59.3,57.6,29.67,SSE,162,5.0,5.0,94,0.05,,,0.50,Wunderground v.1.15,2013-10-31 14:11:00,
2013-10-31 10:16:00,59.5,57.5,29.67,SW,220,5.0,11.0,93,0.05,,,0.51,Wunderground v.1.15,2013-10-31 14:16:00,
2013-10-31 10:21:00,59.6,57.6,29.67,SW,222,6.0,6.0,93,0.09,,,0.52,Wunderground v.1.15,2013-10-31 14:21:00,
2013-10-31 10:26:00,59.6,57.6,29.66,SW,235,5.0,10.0,93,0.08,,,0.52,Wunderground v.1.15,2013-10-31 14:26:00,
2013-10-31 10:31:00,59.7,57.7,29.66,SSW,202,4.0,4.0,93,0.05,,,0.52,Wunderground v.1.15,2013-10-31 14:31:00,
2013-10-31 10:36:00,59.7,57.7,29.66,SW,214,5.0,13.0,93,0.15,,,0.54,Wunderground v.1.15,2013-10-31 14:36:00,
2013-10-31 10:42:00,59.7,57.7,29.66,SSW,202,5.0,6.0,93,0.12,,,0.55,Wunderground v.1.15,2013-10-31 14:42:00,
2013-10-31 10:47:00,59.7,57.7,29.66,SW,215,5.0,13.0,93,0.10,,,0.55,Wunderground v.1.15,2013-10-31 14:47:00,
2013-10-31 10:52:00,59.7,57.7,29.66,SW,217,5.0,11.0,93,0.06,,,0.56,Wunderground v.1.15,2013-10-31 14:52:00,
2013-10-31 10:57:00,59.8,57.8,29.66,SSW,204,5.0,11.0,93,0.06,,,0.56,Wunderground v.1.15,2013-10-31 14:57:00,
2013-10-31 11:02:00,59.8,57.8,29.65,WSW,238,6.0,6.0,93,0.05,,,0.56,Wunderground v.1.15,2013-10-31 15:02:00,
2013-10-31 11:07:00,59.9,57.9,29.65,SW,226,5.0,9.0,93,0.04,,,0.56,Wunderground v.1.15,2013-10-31 15:07:00,
2013-10-31 11:12:00,60.0,58.0,29.65,SW,229,5.0,14.0,93,0.00,,,0.56,Wunderground v.1.15,2013-10-31 15:12:00,
2013-10-31 11:18:00,60.1,57.8,29.65,WSW,242,5.0,14.0,92,0.00,,,0.57,Wunderground v.1.15,2013-10-31 15:18:00,
2013-10-31 11:23:00,60.2,58.2,29.64,SW,218,5.0,10.0,93,0.00,,,0.57,Wunderground v.1.15,2013-10-31 15:23:00,
2013-10-31 11:28:00,60.2,58.2,29.64,SSW,212,5.0,10.0,93,0.05,,,0.58,Wunderground v.1.15,2013-10-31 15:28:00,
2013-10-31 11:33:00,60.2,57.9,29.64,SW,229,5.0,5.0,92,0.05,,,0.58,Wunderground v.1.15,2013-10-31 15:33:00,
2013-10-31 11:38:00,60.2,57.9,29.64,SW,234,5.0,6.0,92,0.07,,,0.59,Wunderground v.1.15,2013-10-31 15:38:00,
2013-10-31 11:44:00,60.3,58.3,29.64,SSW,211,5.0,11.0,93,0.09,,,0.60,Wunderground v.1.15,2013-10-31 15:44:00,
2013-10-31 11:49:00,60.3,58.3,29.64,SSW,209,4.0,11.0,93,0.08,,,0.61,Wunderground v.1.15,2013-10-31 15:49:00,
2013-10-31 11:54:00,60.2,58.2,29.63,SW,223,4.0,7.0,93,0.13,,,0.62,Wunderground v.1.15,2013-10-31 15:54:00,
2013-10-31 11:59:00,60.2,58.2,29.63,SSW,206,4.0,7.0,93,0.10,,,0.62,Wunderground v.1.15,2013-10-31 15:59:00,
2013-10-31 12:04:00,60.2,58.2,29.63,SW,233,4.0,6.0,93,0.08,,,0.63,Wunderground v.1.15,2013-10-31 16:04:00,
2013-10-31 12:09:00,60.2,58.2,29.63,SSW,207,5.0,8.0,93,0.14,,,0.64,Wunderground v.1.15,2013-10-31 16:09:00,
2013-10-31 12:14:00,60.2,58.2,29.63,SW,215,5.0,11.0,93,0.07,,,0.65,Wunderground v.1.15,2013-10-31 16:14:00,
2013-10-31 12:20:00,60.2,58.2,29.62,SSW,210,4.0,5.0,93,0.09,,,0.66,Wunderground v.1.15,2013-10-31 16:20:00,
2013-10-31 12:25:00,60.1,58.1,29.62,SW,222,5.0,9.0,93,0.09,,,0.66,Wunderground v.1.15,2013-10-31 16:25:00,
2013-10-31 12:30:00,60.1,58.1,29.62,SW,233,4.0,4.0,93,0.10,,,0.67,Wunderground v.1.15,2013-10-31 16:30:00,
2013-10-31 12:35:00,60.0,58.0,29.61,WSW,249,4.0,9.0,93,0.08,,,0.68,Wunderground v.1.15,2013-10-31 16:35:00,
2013-10-31 12:46:00,59.9,57.9,29.60,SW,223,4.0,6.0,93,0.07,,,0.69,Wunderground v.1.15,2013-10-31 16:46:00,
2013-10-31 12:51:00,59.9,57.9,29.60,SSE,166,5.0,9.0,93,0.07,,,0.70,Wunderground v.1.15,2013-10-31 16:51:00,
2013-10-31 12:56:00,59.9,57.9,29.59,SSE,160,4.0,9.0,93,0.07,,,0.70,Wunderground v.1.15,2013-10-31 16:56:00,
2013-10-31 13:01:00,59.8,57.8,29.58,South,190,4.0,5.0,93,0.08,,,0.71,Wunderground v.1.15,2013-10-31 17:01:00,
2013-10-31 13:07:00,59.8,57.8,29.58,SW,219,3.0,10.0,93,0.06,,,0.71,Wunderground v.1.15,2013-10-31 17:07:00,
2013-10-31 13:12:00,59.8,57.8,29.58,SSW,208,3.0,3.0,93,0.05,,,0.72,Wunderground v.1.15,2013-10-31 17:12:00,
2013-10-31 13:17:00,59.8,57.8,29.58,WSW,238,3.0,3.0,93,0.05,,,0.72,Wunderground v.1.15,2013-10-31 17:17:00,
2013-10-31 13:22:00,59.7,57.7,29.57,SSW,209,3.0,6.0,93,0.07,,,0.73,Wunderground v.1.15,2013-10-31 17:22:00,
2013-10-31 13:27:00,59.7,57.7,29.56,SW,214,5.0,13.0,93,0.10,,,0.74,Wunderground v.1.15,2013-10-31 17:27:00,
2013-10-31 13:32:00,59.6,57.6,29.56,SSW,202,5.0,15.0,93,0.09,,,0.75,Wunderground v.1.15,2013-10-31 17:32:00,
2013-10-31 13:37:00,59.5,57.5,29.55,South,182,4.0,15.0,93,0.19,,,0.76,Wunderground v.1.15,2013-10-31 17:37:00,
2013-10-31 13:43:00,59.5,57.5,29.54,SW,222,3.0,4.0,93,0.21,,,0.78,Wunderground v.1.15,2013-10-31 17:43:00,
2013-10-31 13:48:00,59.5,57.5,29.53,SW,225,2.0,7.0,93,0.14,,,0.79,Wunderground v.1.15,2013-10-31 17:48:00,
2013-10-31 13:53:00,59.4,57.4,29.52,South,187,4.0,7.0,93,0.09,,,0.80,Wunderground v.1.15,2013-10-31 17:53:00,
2013-10-31 13:58:00,59.4,57.4,29.52,South,179,3.0,7.0,93,0.09,,,0.80,Wunderground v.1.15,2013-10-31 17:58:00,
2013-10-31 14:03:00,59.4,57.4,29.50,South,188,3.0,3.0,93,0.05,,,0.80,Wunderground v.1.15,2013-10-31 18:03:00,
2013-10-31 14:08:00,59.4,57.4,29.50,SSW,196,2.0,3.0,93,0.04,,,0.80,Wunderground v.1.15,2013-10-31 18:08:00,
2013-10-31 14:13:00,59.4,57.4,29.49,SW,227,3.0,10.0,93,0.00,,,0.81,Wunderground v.1.15,2013-10-31 18:13:00,
2013-10-31 14:18:00,59.4,57.4,29.48,South,186,4.0,10.0,93,0.00,,,0.81,Wunderground v.1.15,2013-10-31 18:18:00,
2013-10-31 14:24:00,59.4,57.4,29.48,South,191,5.0,11.0,93,0.00,,,0.81,Wunderground v.1.15,2013-10-31 18:24:00,
2013-10-31 14:29:00,59.4,57.4,29.48,SSW,204,4.0,11.0,93,0.00,,,0.81,Wunderground v.1.15,2013-10-31 18:29:00,
2013-10-31 14:34:00,59.4,57.4,29.48,SSW,199,3.0,10.0,93,0.00,,,0.82,Wunderground v.1.15,2013-10-31 18:34:00,
2013-10-31 14:39:00,59.4,57.4,29.47,SW,227,3.0,10.0,93,0.10,,,0.83,Wunderground v.1.15,2013-10-31 18:39:00,
2013-10-31 14:44:00,59.3,57.3,29.47,SW,217,3.0,6.0,93,0.09,,,0.83,Wunderground v.1.15,2013-10-31 18:44:00,
2013-10-31 14:49:00,59.3,57.3,29.46,SE,146,4.0,10.0,93,0.06,,,0.84,Wunderground v.1.15,2013-10-31 18:49:00,
2013-10-31 14:54:00,59.3,57.3,29.46,SW,220,4.0,4.0,93,0.06,,,0.84,Wunderground v.1.15,2013-10-31 18:54:00,
2013-10-31 15:00:00,59.3,57.3,29.45,SW,229,5.0,5.0,93,0.07,,,0.85,Wunderground v.1.15,2013-10-31 19:00:00,
2013-10-31 15:05:00,59.3,57.3,29.45,SSE,156,4.0,6.0,93,0.13,,,0.86,Wunderground v.1.15,2013-10-31 19:05:00,
2013-10-31 15:10:00,59.3,57.6,29.44,SSW,210,3.0,9.0,94,0.15,,,0.88,Wunderground v.1.15,2013-10-31 19:10:00,
2013-10-31 15:15:00,59.3,57.6,29.43,SSW,194,3.0,9.0,94,0.11,,,0.89,Wunderground v.1.15,2013-10-31 19:15:00,
2013-10-31 15:20:00,59.2,57.5,29.43,SSE,149,3.0,5.0,94,0.11,,,0.89,Wunderground v.1.15,2013-10-31 19:20:00,
2013-10-31 15:25:00,59.1,57.4,29.42,South,190,3.0,6.0,94,0.07,,,0.90,Wunderground v.1.15,2013-10-31 19:25:00,
2013-10-31 15:31:00,59.1,57.4,29.42,SSW,198,4.0,12.0,94,0.09,,,0.91,Wunderground v.1.15,2013-10-31 19:31:00,
2013-10-31 15:36:00,59.0,57.3,29.41,SSW,204,3.0,12.0,94,0.09,,,0.91,Wunderground v.1.15,2013-10-31 19:36:00,
2013-10-31 15:41:00,59.0,57.3,29.41,South,190,3.0,4.0,94,0.05,,,0.91,Wunderground v.1.15,2013-10-31 19:41:00,
2013-10-31 15:46:00,59.0,57.3,29.41,SSW,212,5.0,10.0,94,0.05,,,0.92,Wunderground v.1.15,2013-10-31 19:46:00,
2013-10-31 15:51:00,59.0,57.3,29.40,SW,233,4.0,9.0,94,0.05,,,0.92,Wunderground v.1.15,2013-10-31 19:51:00,
2013-10-31 15:54:00,59.0,57.3,29.40,SW,221,4.0,9.0,94,0.06,,,0.93,Wunderground v.1.15,2013-10-31 19:54:00,
2013-10-31 15:59:00,59.0,57.3,29.40,SW,222,3.0,9.0,94,0.06,,,0.93,Wunderground v.1.15,2013-10-31 19:59:00,
2013-10-31 16:04:00,59.0,57.3,29.39,ESE,110,3.0,6.0,94,0.05,,,0.93,Wunderground v.1.15,2013-10-31 20:04:00,
2013-10-31 16:10:00,59.0,57.3,29.38,SSW,205,4.0,4.0,94,0.00,,,0.93,Wunderground v.1.15,2013-10-31 20:10:00,
2013-10-31 16:15:00,59.0,57.3,29.38,SW,225,4.0,5.0,94,0.00,,,0.93,Wunderground v.1.15,2013-10-31 20:15:00,
2013-10-31 16:21:00,59.1,57.4,29.38,SW,223,3.0,6.0,94,0.00,,,0.93,Wunderground v.1.15,2013-10-31 20:21:00,
2013-10-31 16:26:00,59.2,57.5,29.38,SSW,198,3.0,10.0,94,0.00,,,0.93,Wunderground v.1.15,2013-10-31 20:26:00,
2013-10-31 16:31:00,59.3,57.6,29.37,South,188,4.0,4.0,94,0.00,,,0.93,Wunderground v.1.15,2013-10-31 20:31:00,
2013-10-31 16:37:00,59.5,57.8,29.37,SSW,208,4.0,8.0,94,0.00,,,0.93,Wunderground v.1.15,2013-10-31 20:37:00,
2013-10-31 16:42:00,59.6,57.9,29.37,SW,231,3.0,4.0,94,0.00,,,0.93,Wunderground v.1.15,2013-10-31 20:42:00,
2013-10-31 16:47:00,59.7,58.0,29.37,South,180,3.0,4.0,94,0.00,,,0.93,Wunderground v.1.15,2013-10-31 20:47:00,
2013-10-31 16:53:00,59.8,58.1,29.36,WSW,249,4.0,7.0,94,0.00,,,0.93,Wunderground v.1.15,2013-10-31 20:53:00,
2013-10-31 16:58:00,60.0,58.3,29.36,SSW,205,4.0,9.0,94,0.00,,,0.93,Wunderground v.1.15,2013-10-31 20:58:00,
2013-10-31 17:03:00,60.1,58.4,29.35,SW,229,4.0,6.0,94,0.00,,,0.93,Wunderground v.1.15,2013-10-31 21:03:00,
2013-10-31 17:08:00,60.3,58.6,29.35,South,173,4.0,6.0,94,0.00,,,0.93,Wunderground v.1.15,2013-10-31 21:08:00,
2013-10-31 17:14:00,60.4,58.7,29.35,SW,225,4.0,6.0,94,0.00,,,0.93,Wunderground v.1.15,2013-10-31 21:14:00,
2013-10-31 17:19:00,60.6,58.9,29.35,SSW,203,4.0,7.0,94,0.00,,,0.93,Wunderground v.1.15,2013-10-31 21:19:00,
2013-10-31 17:24:00,60.7,59.0,29.35,SW,216,4.0,11.0,94,0.00,,,0.93,Wunderground v.1.15,2013-10-31 21:24:00,
2013-10-31 17:29:00,60.8,59.1,29.35,SSW,213,4.0,11.0,94,0.00,,,0.93,Wunderground v.1.15,2013-10-31 21:29:00,
2013-10-31 17:35:00,60.9,59.2,29.34,WSW,253,3.0,10.0,94,0.00,,,0.93,Wunderground v.1.15,2013-10-31 21:35:00,
2013-10-31 17:40:00,60.9,59.2,29.34,South,182,3.0,12.0,94,0.00,,,0.94,Wunderground v.1.15,2013-10-31 21:40:00,
2013-10-31 17:45:00,60.9,59.2,29.33,WSW,238,4.0,12.0,94,0.12,,,0.94,Wunderground v.1.15,2013-10-31 21:45:00,
2013-10-31 17:51:00,61.0,59.3,29.33,SW,227,3.0,4.0,94,0.19,,,0.96,Wunderground v.1.15,2013-10-31 21:51:00,
2013-10-31 17:56:00,61.0,59.3,29.33,SSW,209,4.0,11.0,94,0.14,,,0.97,Wunderground v.1.15,2013-10-31 21:56:00,
2013-10-31 18:01:00,61.1,59.4,29.33,SW,215,4.0,4.0,94,0.17,,,0.99,Wunderground v.1.15,2013-10-31 22:01:00,
2013-10-31 18:06:00,61.1,59.4,29.33,WSW,239,3.0,4.0,94,0.16,,,1.01,Wunderground v.1.15,2013-10-31 22:06:00,
2013-10-31 18:12:00,61.1,59.4,29.32,SSW,213,3.0,4.0,94,0.21,,,1.03,Wunderground v.1.15,2013-10-31 22:12:00,
2013-10-31 18:17:00,61.0,59.3,29.32,SSW,213,2.0,4.0,94,0.11,,,1.03,Wunderground v.1.15,2013-10-31 22:17:00,
2013-10-31 18:22:00,61.0,59.3,29.32,SW,229,2.0,7.0,94,0.06,,,1.04,Wunderground v.1.15,2013-10-31 22:22:00,
2013-10-31 18:27:00,61.0,59.3,29.32,SW,227,2.0,7.0,94,0.25,,,1.06,Wunderground v.1.15,2013-10-31 22:27:00,
2013-10-31 18:32:00,61.1,59.7,29.31,SSW,193,2.0,4.0,95,0.25,,,1.08,Wunderground v.1.15,2013-10-31 22:32:00,
2013-10-31 18:37:00,61.1,59.7,29.30,SSW,194,2.0,4.0,95,0.09,,,1.08,Wunderground v.1.15,2013-10-31 22:37:00,
2013-10-31 18:42:00,61.1,59.7,29.30,South,191,1.0,3.0,95,0.21,,,1.10,Wunderground v.1.15,2013-10-31 22:42:00,
2013-10-31 18:47:00,61.0,59.6,29.30,SW,218,2.0,3.0,95,0.08,,,1.10,Wunderground v.1.15,2013-10-31 22:47:00,
2013-10-31 18:52:00,61.0,59.6,29.30,SW,224,2.0,7.0,95,0.24,,,1.13,Wunderground v.1.15,2013-10-31 22:52:00,
2013-10-31 18:58:00,61.0,59.6,29.30,SSW,206,2.0,7.0,95,0.19,,,1.14,Wunderground v.1.15,2013-10-31 22:58:00,
2013-10-31 19:04:00,61.1,59.7,29.30,SW,220,2.0,6.0,95,0.13,,,1.15,Wunderground v.1.15,2013-10-31 23:04:00,
2013-10-31 19:09:00,61.1,59.7,29.30,SW,218,3.0,6.0,95,0.10,,,1.16,Wunderground v.1.15,2013-10-31 23:09:00,
2013-10-31 19:14:00,61.2,59.8,29.30,SSW,206,2.0,9.0,95,0.20,,,1.18,Wunderground v.1.15,2013-10-31 23:14:00,
2013-10-31 19:19:00,61.2,59.8,29.29,SSW,197,3.0,9.0,95,0.15,,,1.19,Wunderground v.1.15,2013-10-31 23:19:00,
2013-10-31 19:24:00,61.3,59.9,29.29,South,180,4.0,10.0,95,0.13,,,1.20,Wunderground v.1.15,2013-10-31 23:24:00,
2013-10-31 19:30:00,61.3,59.9,29.30,SSW,205,5.0,9.0,95,0.11,,,1.21,Wunderground v.1.15,2013-10-31 23:30:00,
2013-10-31 19:35:00,61.2,59.8,29.31,SW,234,5.0,9.0,95,0.14,,,1.22,Wunderground v.1.15,2013-10-31 23:35:00,
2013-10-31 19:41:00,61.0,59.6,29.31,SW,218,5.0,6.0,95,0.10,,,1.23,Wunderground v.1.15,2013-10-31 23:41:00,
2013-10-31 19:46:00,60.8,59.1,29.30,WSW,240,6.0,13.0,94,0.10,,,1.24,Wunderground v.1.15,2013-10-31 23:46:00,
2013-10-31 19:52:00,60.7,59.0,29.30,SW,229,5.0,6.0,94,0.13,,,1.25,Wunderground v.1.15,2013-10-31 23:52:00,
2013-10-31 19:57:00,60.5,58.8,29.29,SW,219,3.0,6.0,94,0.15,,,1.27,Wunderground v.1.15,2013-10-31 23:57:00,
2013-10-31 20:03:00,60.5,58.8,29.29,SW,234,3.0,7.0,94,0.14,,,1.28,Wunderground v.1.15,2013-11-01 00:03:00,
2013-10-31 20:08:00,60.4,58.7,29.28,SSW,207,3.0,7.0,94,0.13,,,1.29,Wunderground v.1.15,2013-11-01 00:08:00,
2013-10-31 20:14:00,60.4,58.7,29.28,SW,223,3.0,10.0,94,0.13,,,1.30,Wunderground v.1.15,2013-11-01 00:14:00,
2013-10-31 20:19:00,60.4,58.7,29.28,SSW,206,3.0,10.0,94,0.10,,,1.31,Wunderground v.1.15,2013-11-01 00:19:00,
2013-10-31 20:24:00,60.4,58.7,29.28,SSW,203,3.0,5.0,94,0.08,,,1.32,Wunderground v.1.15,2013-11-01 00:24:00,
2013-10-31 20:29:00,60.4,58.7,29.28,SW,224,3.0,5.0,94,0.08,,,1.32,Wunderground v.1.15,2013-11-01 00:29:00,
2013-10-31 20:35:00,60.4,58.7,29.27,SW,223,3.0,4.0,94,0.05,,,1.32,Wunderground v.1.15,2013-11-01 00:35:00,
2013-10-31 20:40:00,60.4,58.7,29.28,SW,218,3.0,5.0,94,0.04,,,1.33,Wunderground v.1.15,2013-11-01 00:40:00,
2013-10-31 20:45:00,60.5,58.8,29.27,SW,216,4.0,9.0,94,0.04,,,1.33,Wunderground v.1.15,2013-11-01 00:45:00,
2013-10-31 20:51:00,60.6,58.9,29.27,SW,232,5.0,9.0,94,0.06,,,1.34,Wunderground v.1.15,2013-11-01 00:51:00,
2013-10-31 20:56:00,60.7,59.0,29.25,SW,214,4.0,9.0,94,0.06,,,1.34,Wunderground v.1.15,2013-11-01 00:56:00,
2013-10-31 21:01:00,60.7,59.0,29.25,SW,223,4.0,7.0,94,0.07,,,1.35,Wunderground v.1.15,2013-11-01 01:01:00,
2013-10-31 21:07:00,60.6,58.9,29.25,SW,222,4.0,7.0,94,0.08,,,1.36,Wunderground v.1.15,2013-11-01 01:07:00,
2013-10-31 21:12:00,60.5,58.8,29.23,SSW,211,3.0,4.0,94,0.08,,,1.36,Wunderground v.1.15,2013-11-01 01:12:00,
2013-10-31 21:18:00,60.5,58.8,29.23,SW,221,3.0,6.0,94,0.09,,,1.37,Wunderground v.1.15,2013-11-01 01:18:00,
2013-10-31 21:23:00,60.4,58.7,29.24,SSW,199,3.0,6.0,94,0.09,,,1.38,Wunderground v.1.15,2013-11-01 01:23:00,
2013-10-31 21:29:00,60.4,58.7,29.23,SW,233,4.0,10.0,94,0.10,,,1.39,Wunderground v.1.15,2013-11-01 01:29:00,
2013-10-31 21:34:00,60.3,58.6,29.25,SSW,211,4.0,5.0,94,0.14,,,1.41,Wunderground v.1.15,2013-11-01 01:34:00,
2013-10-31 21:40:00,60.1,58.4,29.25,SW,219,4.0,4.0,94,0.13,,,1.42,Wunderground v.1.15,2013-11-01 01:40:00,
2013-10-31 21:45:00,60.0,58.3,29.25,WSW,245,4.0,10.0,94,0.12,,,1.43,Wunderground v.1.15,2013-11-01 01:45:00,
2013-10-31 21:51:00,59.9,58.2,29.25,West,260,4.0,4.0,94,0.13,,,1.44,Wunderground v.1.15,2013-11-01 01:51:00,
2013-10-31 21:56:00,59.8,58.1,29.26,WSW,257,4.0,9.0,94,0.12,,,1.45,Wunderground v.1.15,2013-11-01 01:56:00,
2013-10-31 22:02:00,59.5,57.8,29.28,West,267,5.0,7.0,94,0.16,,,1.47,Wunderground v.1.15,2013-11-01 02:02:00,
2013-10-31 22:07:00,59.0,57.3,29.28,West,275,8.0,18.0,94,0.13,,,1.48,Wunderground v.1.15,2013-11-01 02:07:00,
2013-10-31 22:12:00,58.8,56.8,29.28,West,266,9.0,9.0,93,0.12,,,1.49,Wunderground v.1.15,2013-11-01 02:12:00,
2013-10-31 22:18:00,58.0,56.0,29.28,WNW,286,10.0,15.0,93,0.11,,,1.50,Wunderground v.1.15,2013-11-01 02:18:00,
2013-10-31 22:24:00,57.4,55.4,29.26,WNW,294,11.0,12.0,93,0.11,,,1.51,Wunderground v.1.15,2013-11-01 02:24:00,
2013-10-31 22:29:00,57.0,55.0,29.26,WNW,292,7.0,12.0,93,0.12,,,1.52,Wunderground v.1.15,2013-11-01 02:29:00,
2013-10-31 22:34:00,56.6,54.6,29.26,West,274,6.0,14.0,93,0.10,,,1.53,Wunderground v.1.15,2013-11-01 02:34:00,
2013-10-31 22:40:00,56.2,54.2,29.26,WNW,288,6.0,9.0,93,0.10,,,1.54,Wunderground v.1.15,2013-11-01 02:40:00,
2013-10-31 22:45:00,56.0,54.0,29.27,West,279,5.0,9.0,93,0.09,,,1.54,Wunderground v.1.15,2013-11-01 02:45:00,
2013-10-31 22:50:00,55.8,53.8,29.28,NW,306,5.0,13.0,93,0.09,,,1.55,Wunderground v.1.15,2013-11-01 02:50:00,
2013-10-31 22:56:00,55.5,53.5,29.29,WNW,288,6.0,13.0,93,0.08,,,1.56,Wunderground v.1.15,2013-11-01 02:56:00,
2013-10-31 23:01:00,55.4,53.4,29.29,West,277,5.0,9.0,93,0.09,,,1.57,Wunderground v.1.15,2013-11-01 03:01:00,
2013-10-31 23:06:00,55.3,53.3,29.29,WNW,290,4.0,19.0,93,0.09,,,1.57,Wunderground v.1.15,2013-11-01 03:06:00,
2013-10-31 23:12:00,55.2,53.2,29.31,West,276,4.0,4.0,93,0.08,,,1.58,Wunderground v.1.15,2013-11-01 03:12:00,
2013-10-31 23:17:00,55.1,53.1,29.32,West,270,3.0,4.0,93,0.08,,,1.59,Wunderground v.1.15,2013-11-01 03:17:00,
2013-10-31 23:22:00,55.0,53.0,29.32,West,266,2.0,11.0,93,0.08,,,1.59,Wunderground v.1.15,2013-11-01 03:22:00,
2013-10-31 23:27:00,54.9,52.9,29.33,West,273,2.0,11.0,93,0.06,,,1.60,Wunderground v.1.15,2013-11-01 03:27:00,
2013-10-31 23:32:00,54.7,52.7,29.34,WSW,256,2.0,3.0,93,0.07,,,1.60,Wunderground v.1.15,2013-11-01 03:32:00,
2013-10-31 23:38:00,54.6,52.3,29.35,WSW,253,3.0,7.0,92,0.07,,,1.61,Wunderground v.1.15,2013-11-01 03:38:00,
2013-10-31 23:43:00,54.4,52.4,29.35,West,264,3.0,4.0,93,0.06,,,1.62,Wunderground v.1.15,2013-11-01 03:43:00,
2013-10-31 23:48:00,54.2,51.9,29.35,WSW,256,3.0,11.0,92,0.06,,,1.62,Wunderground v.1.15,2013-11-01 03:48:00,
2013-10-31 23:54:00,54.1,51.8,29.35,West,263,3.0,6.0,92,0.05,,,1.63,Wunderground v.1.15,2013-11-01 03:54:00,
2013-10-31 23:59:00,53.9,51.6,29.33,West,269,2.0,6.0,92,0.05,,,1.63,Wunderground v.1.15,2013-11-01 03:59:00,